Regional Weather Roundup
Issued by NWS

Home | Current Version | Previous Version | Text Only | Print | Product List | Glossary On
Versions: 1 2 3 4 5 6 7 8 9 10 11 12 13 14 15 16 17 18 19 20 21 22 23 24 25 26 27 28 29 30 31 32 33 34 35 36 37 38 39 40 41 42 43 44 45 46 47 48 49 50
000
ASUS45 KSLC 202310
RWRUT

UTAH REGIONAL WEATHER ROUNDUP
NATIONAL WEATHER SERVICE SALT LAKE CITY UT
500 PM MDT WED AUG 20 2014

UTZ001>011-023>025-210000-

NORTHERN UTAH

CITY           SKY/WX    TMP DP  RH WIND       PRES   REMARKS
HILL AFB       SUNNY     81  50  34 S15       29.95F
LOGAN          SUNNY     83  46  27 S10G18    29.90F
OGDEN          MOSUNNY   82  48  30 SE8G17    29.92F
PROVO AIRPORT  MOSUNNY   81  52  36 E5        29.98F
SALT LAKE CITY CLOUDY    78  51  38 S22G28    29.91F
VERNAL         TSTM      57  52  83 N24G32    30.04R
WENDOVER       PTSUNNY   81  43  26 SE20      29.91R
HEBER CITY     MOSUNNY   79  45  29 SW12      30.01F
WEST JORDAN    PTSUNNY   75  63  64 S8        29.97S

$$

UTZ012>022-026-027-210000-

SOUTHERN UTAH

CITY           SKY/WX    TMP DP  RH WIND       PRES   REMARKS
BRYCE CANYON   CLOUDY    64  45  49 NW3       30.23R
CEDAR CITY     MOSUNNY   76  47  35 SW7G16    30.08S
MILFORD        LGT RAIN  80  47  31 SW20      30.04S
MOAB/CYNLANDS  CLOUDY    73  51  46 W30G38    29.97R
PRICE          LGT RAIN  70  49  47 N10       30.05S
ST GEORGE      PTCLDY    84  54  34 W17       29.95S
KANAB            N/A     73  54  49 SE8       30.11S

$$

REGIONAL REPORTS     COLORADO/ARIZONA

CITY           SKY/WX    TMP DP  RH WIND       PRES   REMARKS
CRAIG, CO        N/A     73  47  39 W12       30.06F
GRAND JUNCTION SUNNY     81  51  35 NW7       29.96F
RIFLE          MOSUNNY   81  45  28 W20G25    30.00S
MONTROSE       LGT RAIN  77  54  44 NW5       30.05F
CORTEZ         SUNNY     80  35  19 W6        30.09F
PAGE, AZ       LGT RAIN  79  45  29 W6G18     30.00R
GRAND CANYON   PTSUNNY   72  45  37 S16       30.19F
KINGMAN        CLOUDY    86  51  29 E13       29.98F
FLAGSTAFF      MOSUNNY   71  44  37 SW12      30.23F HAZE

$$

REGIONAL REPORTS    NEVADA/IDAHO/WYOMING

CITY           SKY/WX    TMP DP  RH WIND       PRES   REMARKS
LAS VEGAS, NV  PTSUNNY   89  47  23 S18G28    29.83F THUNDER
ELY            MOSUNNY   77  39  25 S13       30.05F
ELKO           PTSUNNY   82  36  19 SE18G26   29.91F
POCATELLO, ID  TSTM      72  49  44 S21G26    29.90R
BURLEY         TSTM      66  53  63 SW24G32   29.91R
EVANSTON, WY   MOSUNNY   73  42  32 W18G24    30.09F
ROCK SPRINGS   LGT RAIN  62  43  49 W9        30.10S

$$



USA.gov is the U.S. government's official web portal to all federal, state and local government web resources and services.